Вернуться в каталог

FENGYUN 1C DEB

АктивенSSO
NORAD 30170·DEBRIS·🇨🇳 China

Запущен May 10, 1999 с Taiyuan Satellite Launch Center

Loading…

Ближайшие Пролёты (ближайшие 24 часа)

TLE

СвежийSource: Space-Track

Эпоха: Sep 14, 2026, 21:44 UTC

1 30170U 99025UB  26257.90562569  .00000303  00000-0  22684-3 0  9991
2 30170  98.8778 241.4619 0077234 228.1486 150.5210 14.00629575  2770

Отслеживайте FENGYUN 1C DEB в реальном времени с AllMySat

Download on the App Store